{"data":{"norad_id":54772,"intl_designator":"2022-175Q","name":"STARLINK-5452","alt_names":[],"object_type":"PAYLOAD","status":"ACTIVE","operator":null,"country":"US","launch_date":"2022-12-17","launch_site_code":"AFETR","launch_vehicle":null,"mission":null,"orbit_class":"UNKNOWN","rcs_meters":null,"size_class":null,"mass_kg":null,"dimensions":null,"purposes":["comms"],"wikipedia_slug":null,"has_3d_model":false,"image_url":null,"decayed_at":null,"tle_current":{"epoch":"2026-09-20T14:13:44.744736Z","epoch_age_seconds":81893,"freshness":"FRESH","line1":"1 54772U 22175Q   26263.59287899  .00000605  00000+0  29045-4 0  9992","line2":"2 54772  53.1591 219.4481 0001458  92.0268 268.0901 15.34388468209754","mean_motion":15.34388468,"eccentricity":0.0001458,"inclination_deg":53.1591,"raan_deg":219.4481,"arg_perigee_deg":92.0268,"mean_anomaly_deg":268.0901,"bstar":2.9045e-5,"rev_number":20975,"period_min":93.848463412722,"perigee_km":461.74011645161,"apogee_km":463.73491546046,"semimajor_km":6840.874515956,"source":"CELESTRAK","updated_at":"2026-09-21T09:00:33.122505Z"}}}